Regional Weather Roundup
Issued by NWS

Home | Current Version | Previous Version | Text Only | Print | Product List | Glossary Off
Versions: 1 2 3 4 5 6 7 8 9 10 11 12 13 14 15 16 17 18 19 20 21 22 23 24 25 26 27 28 29 30 31 32 33 34 35 36 37 38 39 40 41 42 43 44 45 46 47 48 49 50

000
ASUS43 KLMK 021610
RWRKY
KENTUCKY REGIONAL WEATHER ROUNDUP
NATIONAL WEATHER SERVICE LOUISVILLE KY
1200 PM EDT SUN AUG 02 2015

NOTE "FAIR" INDICATES FEW OR NO CLOUDS BELOW 12,000 FEET
WITH NO SIGNIFICANT WEATHER AND/OR OBSTRUCTIONS TO VISIBILITY.

KYZ001>023-026-027-061>063-070>075-021700-
WESTERN AND SOUTH CENTRAL KENTUCKY

CITY           SKY/WX    TMP DP  RH WIND       PRES   REMARKS
PADUCAH        SUNNY     85  67  54 SW6       29.99S
HENDERSON      SUNNY     82  66  57 SW5       29.98S
OWENSBORO      SUNNY     83  68  60 S8        30.00F
HOPKINSVILLE   SUNNY     83  62  48 E5        30.00S
BOWLING GREEN  SUNNY     84  61  45 VRB5      30.02S
GLASGOW        SUNNY    N/A N/A N/A CALM      30.02S
$$

KYZ024-025-028>034-038-045-046-053-021700-
NORTH CENTRAL KENTUCKY

CITY           SKY/WX    TMP DP  RH WIND       PRES   REMARKS
LOUISVILLE/SDF MOSUNNY   84  59  42 SE7       30.00S
LOUISVILLE/LOU SUNNY     83  58  42 SW3       30.01S
FORT KNOX      SUNNY     83  63  51 S7        30.00F
$$

KYZ035>037-039>044-047>052-055>060-089>105-021700-
NORTHEAST KENTUCKY

CITY           SKY/WX    TMP DP  RH WIND       PRES   REMARKS
LEXINGTON      SUNNY     80  59  48 SW3       30.03S
COVINGTON      SUNNY     81  63  54 S9        30.00S
FRANKFORT      SUNNY     81  59  47 VRB3      30.01S
$$

KYZ054-064>069-076>088-106>120-021700-
SOUTHEAST KENTUCKY

CITY           SKY/WX    TMP DP  RH WIND       PRES   REMARKS
JACKSON        SUNNY     78  62  57 CALM      30.06S
LONDON         MOSUNNY   81  57  43 SE10      30.05S
SOMERSET       SUNNY     81  61  50 SE6       30.05R
MIDDLESBORO    MOSUNNY   79  64  60 CALM      30.04F
MONTICELLO     SUNNY     83  62  48 E7        30.06R
$$



USA.gov is the U.S. government's official web portal to all federal, state and local government web resources and services.